DW8427 Weather Reports


Display with metric or nautical units.
time (UTC)temp
F
wind
direction
speed
MPH
gust
MPH
rain 1hr
in
rain 24hr
in
rain mn
in
humidity
%
barometer
mb
20260508001539 85 349 0.0 1.0 0.00 0.00 0.00 49 1014.2
20260508000045 85 136 0.0 4.0 0.00 0.00 0.00 49 1014.2
20260507234538 85 103 0.0 0.0 0.00 0.00 0.00 49 1014.2
20260507233039 83 109 0.0 3.0 0.00 0.00 0.00 50 1014.4
20260507231532 84 131 0.0 1.0 0.00 0.00 0.00 50 1014.5
20260507230046 83 214 0.0 3.0 0.00 0.00 0.00 50 1014.7
20260507224532 82 284 0.0 5.0 0.00 0.00 0.00 52 1014.9
20260507223057 82 237 0.0 4.0 0.00 0.00 0.00 51 1015.2
20260507221524 82 286 1.0 4.0 0.00 0.00 0.00 52 1015.4
20260507220021 82 283 0.0 1.0 0.00 0.00 0.00 52 1015.7
20260507214518 81 281 0.0 5.0 0.00 0.00 0.00 53 1015.9
20260507213017 81 128 0.0 4.0 0.00 0.00 0.00 53 1016.1
20260507211514 79 86 0.0 5.0 0.00 0.00 0.00 54 1016.4
20260507210017 79 283 1.0 6.0 0.00 0.00 0.00 54 1016.5
20260507204508 79 335 0.0 5.0 0.00 0.00 0.00 55 1016.7
20260507203017 79 289 0.0 4.0 0.00 0.00 0.00 55 1016.8
20260507201503 78 178 0.0 3.0 0.00 0.00 0.00 56 1017.0
20260507200000 78 278 0.0 2.0 0.00 0.00 0.00 57 1017.1
20260507194559 76 281 0.0 5.0 0.00 0.00 0.00 57 1017.3
20260507193057 76 287 0.0 5.0 0.00 0.00 0.00 58 1017.6
20260507191556 76 11 0.0 6.0 0.00 0.00 0.00 59 1017.6
20260507190054 75 133 0.0 1.0 0.00 0.00 0.00 59 1017.8
20260507184552 75 88 0.0 4.0 0.00 0.00 0.00 58 1017.9
20260507183052 75 332 0.0 0.0 0.00 0.00 0.00 60 1018.1
20260507181547 73 89 0.0 1.0 0.00 0.00 0.00 61 1018.1
20260507180047 71 292 0.0 1.0 0.00 0.00 0.00 64 1018.1
20260507174553 70 309 0.0 4.0 0.00 0.00 0.00 66 1018.2
20260507173042 71 266 0.0 2.0 0.00 0.00 0.00 68 1018.2
20260507171542 69 271 0.0 1.0 0.00 0.00 0.00 68 1018.3
20260507170043 67 268 0.0 2.0 0.00 0.00 0.00 71 1018.4
20260507164534 67 84 0.0 1.0 0.00 0.00 0.00 71 1018.3
20260507163032 66 160 0.0 0.0 0.00 0.00 0.00 73 1018.4
20260507161532 64 96 0.0 0.0 0.00 0.00 0.00 75 1018.5
20260507160027 63 69 0.0 0.0 0.00 0.00 0.00 76 1018.6
20260507154527 62 136 0.0 0.0 0.00 0.00 0.00 77 1018.7
20260507153023 60 226 0.0 0.0 0.00 0.00 0.00 81 1018.6
20260507151525 59 237 0.0 0.0 0.00 0.00 0.00 82 1018.6
20260507150021 58 94 0.0 1.0 0.00 0.00 0.00 83 1018.7
20260507144526 57 127 0.0 1.0 0.00 0.00 0.00 84 1018.7
20260507143017 56 123 0.0 1.0 0.00 0.00 0.00 84 1018.6
20260507141517 56 151 0.0 0.0 0.00 0.00 0.00 85 1018.5
20260507140014 56 162 0.0 1.0 0.00 0.00 0.00 85 1018.3
20260507134512 56 131 0.0 1.0 0.00 0.00 0.00 85 1018.1
20260507133010 56 122 0.0 1.0 0.00 0.00 0.00 86 1018.1
20260507131521 56 110 0.0 0.0 0.00 0.00 0.00 86 1017.9
20260507130009 56 110 0.0 0.0 0.00 0.00 0.00 86 1017.9
20260507124508 56 113 0.0 0.0 0.00 0.00 0.00 86 1017.9
20260507123007 56 97 0.0 0.0 0.00 0.00 0.00 86 1017.8
20260507121506 56 104 0.0 0.0 0.00 0.00 0.00 85 1017.8
20260507120006 56 91 0.0 0.0 0.00 0.00 0.00 85 1017.7
20260507114503 56 98 0.0 0.0 0.00 0.00 0.00 85 1017.8
20260507113003 56 128 0.0 0.0 0.00 0.00 0.00 85 1017.8
20260507111507 56 105 0.0 0.0 0.00 0.00 0.00 85 1017.9
20260507110100 56 114 0.0 0.0 0.00 0.00 0.00 84 1017.8
20260507104559 56 115 0.0 0.0 0.00 0.00 0.00 84 1017.7
20260507103107 57 112 0.0 0.0 0.00 0.00 0.00 84 1017.7
20260507101601 57 134 0.0 0.0 0.00 0.00 0.00 84 1017.7
20260507100111 57 126 0.0 0.0 0.00 0.00 0.00 83 1017.7
20260507094552 57 101 0.0 0.0 0.00 0.00 0.00 82 1017.8
20260507093053 57 122 0.0 0.0 0.00 0.00 0.00 82 1017.8
20260507091548 58 134 0.0 0.0 0.00 0.00 0.00 81 1017.9
20260507090049 58 107 0.0 0.0 0.00 0.00 0.00 81 1017.9
20260507084549 58 123 0.0 0.0 0.00 0.00 0.00 81 1017.9
20260507083058 59 132 0.0 2.0 0.00 0.00 0.00 81 1017.9
20260507081546 60 93 0.0 5.0 0.00 0.00 0.00 81 1018.0
20260507080039 60 108 0.0 1.0 0.00 0.00 0.00 81 1017.9
20260507074538 60 82 0.0 0.0 0.00 0.00 0.00 80 1017.9
20260507073049 61 115 0.0 1.0 0.00 0.00 0.00 80 1018.0
20260507071536 61 124 0.0 2.0 0.00 0.00 0.00 80 1018.0
20260507070039 62 85 0.0 1.0 0.00 0.00 0.00 80 1017.9
20260507064537 62 106 0.0 1.0 0.00 0.00 0.00 80 1017.7
20260507063033 62 118 0.0 0.0 0.00 0.00 0.00 80 1017.8
20260507061531 62 103 0.0 1.0 0.00 0.00 0.00 79 1017.7
20260507060030 63 148 0.0 0.0 0.00 0.00 0.00 77 1017.7
20260507054538 63 90 0.0 0.0 0.00 0.00 0.00 77 1017.6
20260507053030 64 115 0.0 0.0 0.00 0.00 0.00 76 1017.7
20260507051529 65 131 0.0 0.0 0.00 0.00 0.00 75 1017.7
20260507050035 65 143 0.0 2.0 0.00 0.00 0.00 73 1017.6
20260507044535 66 117 0.0 0.0 0.00 0.00 0.00 73 1017.5
20260507043027 67 214 0.0 0.0 0.00 0.00 0.00 71 1017.3
20260507041534 67 110 0.0 0.0 0.00 0.00 0.00 71 1017.1
20260507040026 67 111 0.0 0.0 0.00 0.00 0.00 70 1017.0
20260507034526 67 134 0.0 0.0 0.00 0.00 0.00 70 1017.0
20260507033028 68 134 0.0 0.0 0.00 0.00 0.00 67 1016.8
20260507031528 70 90 0.0 0.0 0.00 0.00 0.00 65 1016.7
20260507030025 72 90 0.0 0.0 0.00 0.00 0.00 62 1016.6
20260507024524 73 91 0.0 0.0 0.00 0.00 0.00 61 1016.6
20260507023022 73 90 0.0 0.0 0.00 0.00 0.00 60 1016.5
20260507021522 74 141 0.0 0.0 0.00 0.00 0.00 58 1016.5
20260507020023 75 94 0.0 0.0 0.00 0.00 0.00 57 1016.5
20260507014529 74 38 0.0 0.0 0.00 0.00 0.00 58 1016.6
20260507013024 75 348 0.0 1.0 0.00 0.00 0.00 57 1016.6
20260507011521 74 326 0.0 0.0 0.00 0.00 0.00 57 1016.6
20260507010019 75 263 0.0 1.0 0.00 0.00 0.00 57 1016.6
20260507004531 75 107 0.0 0.0 0.00 0.00 0.00 57 1016.7
20260507003014 74 271 0.0 7.0 0.00 0.00 0.00 58 1016.7